TimeMST,TemperatureF,Dew PointF,Humidity,Sea Level PressureIn,VisibilityMPH,Wind Direction,Wind SpeedMPH,Gust SpeedMPH,PrecipitationIn,Events,Conditions,WindDirDegrees,DateUTC
12:53 AM,30.9,16.0,54,29.89,10.0,SSW,3.5,-,N/A,,Clear,210,2013-02-19 07:53:00
1:53 AM,30.9,16.0,54,29.87,10.0,SSE,4.6,-,N/A,,Clear,160,2013-02-19 08:53:00
2:53 AM,30.0,15.1,54,29.84,10.0,South,6.9,-,N/A,,Clear,180,2013-02-19 09:53:00
3:53 AM,30.9,14.0,50,29.82,10.0,South,8.1,-,N/A,,Clear,190,2013-02-19 10:53:00
4:53 AM,30.9,12.9,47,29.81,10.0,South,8.1,-,N/A,,Clear,190,2013-02-19 11:53:00
5:53 AM,28.9,12.0,49,29.82,10.0,SSW,6.9,-,N/A,,Clear,200,2013-02-19 12:53:00
6:53 AM,28.9,12.0,49,29.83,10.0,Calm,Calm,-,N/A,,Clear,0,2013-02-19 13:53:00
7:53 AM,32.0,12.9,45,29.83,10.0,Calm,Calm,-,N/A,,Clear,0,2013-02-19 14:53:00
8:53 AM,43.0,12.0,28,29.80,10.0,SE,11.5,-,N/A,,Clear,130,2013-02-19 15:53:00
9:53 AM,45.0,16.0,31,29.80,10.0,SE,15.0,19.6,N/A,,Clear,130,2013-02-19 16:53:00
11:53 AM,52.0,15.1,23,29.75,10.0,SSW,13.8,19.6,N/A,,Clear,210,2013-02-19 18:53:00
12:53 PM,53.1,15.1,22,29.73,10.0,Variable,6.9,-,N/A,,Partly Cloudy,0,2013-02-19 19:53:00
1:53 PM,54.0,10.9,18,29.69,10.0,South,11.5,21.9,N/A,,Partly Cloudy,190,2013-02-19 20:53:00
2:53 PM,54.0,8.1,16,29.68,10.0,South,16.1,23.0,N/A,,Clear,190,2013-02-19 21:53:00
3:53 PM,51.1,7.0,17,29.66,10.0,SSW,15.0,23.0,N/A,,Clear,200,2013-02-19 22:53:00
5:53 PM,46.9,9.0,21,29.65,10.0,South,13.8,-,N/A,,Clear,190,2013-02-20 00:53:00
6:53 PM,44.1,12.9,28,29.66,10.0,SSE,9.2,-,N/A,,Scattered Clouds,160,2013-02-20 01:53:00
7:53 PM,43.0,16.0,34,29.64,10.0,South,8.1,-,N/A,,Clear,170,2013-02-20 02:53:00
8:53 PM,43.0,18.0,37,29.60,10.0,SSW,8.1,-,N/A,,Clear,200,2013-02-20 03:53:00
9:53 PM,42.1,23.0,47,29.58,10.0,South,11.5,-,N/A,,Clear,190,2013-02-20 04:53:00
10:53 PM,41.0,27.0,57,29.55,10.0,South,11.5,19.6,N/A,,Partly Cloudy,190,2013-02-20 05:53:00
11:53 PM,39.0,25.0,57,29.53,10.0,South,9.2,-,N/A,,Clear,190,2013-02-20 06:53:00